Terminal Aerodrome Forecast
Issued by NWS Blacksburg, VA

Current Version | Previous Version | Text Only | Print | Product List | Glossary Off
Versions: 1 2 3 4 5 6 7 8 9 10 11 12 13 14 15 16 17 18 19 20 21 22 23 24 25 26 27 28 29 30 31 32 33 34 35 36 37 38 39 40 41 42 43 44 45 46 47 48 49 50

000
FTUS41 KRNK 211136
TAFBLF
TAF
KBLF 211136Z 2112/2212 24006KT P6SM SCT040
     FM211500 27012G20KT P6SM BKN080
     FM211900 27012KT P6SM VCSH BKN040
     FM220100 28008KT P6SM BKN050
     FM220900 29005KT P6SM OVC012=

USA.gov is the U.S. government's official web portal to all federal, state and local government web resources and services.